EDW50 LSZH-VTSP

Flight info

Callsign EDW50
Flight time N/A
Altitude 41000
Route DEGES3S DEGES Z2 TUNUM Z204 GEDSO DCT BERTA DCT MAGAM DCT TUVAR DCT ETIDA DCT WRN DCT UDROS UM859 KARDE UL851 TBN UM11 REBLO M11 ERLEV L850 BAKUV N701 LARGI B701 TUGTA A909 LEMOD N644 DI A466 DPN L759 SATVA SATVA1C
Aircraft A343/H-SDE2E3FGHIJ4J5M1RWXYZ/LB1D1

Departure

Time 2026-05-05 16:56
Airport Zürich Airport (LSZH)

Arrival

Time N/A
Airport Phuket International Airport (VTSP)
Time Latitude Longitude Altitude Speed Heading
2026-05-05 16:53 47.47607 8.53801 1407 ft 0 kts 285°
2026-05-05 16:53 47.47608 8.53792 1400 ft 4 kts 283°
2026-05-05 16:53 47.47604 8.53744 1411 ft 3 kts 249°
2026-05-05 16:54 47.47598 8.53723 1411 ft 2 kts 247°
2026-05-05 16:54 47.47557 8.53648 1409 ft 14 kts 205°
2026-05-05 16:54 47.47471 8.53664 1405 ft 13 kts 163°
2026-05-05 16:54 47.47451 8.53677 1408 ft 1 kts 155°
2026-05-05 16:55 47.47414 8.53703 1407 ft 14 kts 154°
2026-05-05 16:55 47.46775 8.54142 1383 ft 95 kts 155°
2026-05-05 16:55 47.46042 8.54647 1404 ft 136 kts 155°
2026-05-05 16:56 47.45089 8.55286 1439 ft 167 kts 159°
2026-05-05 16:56 47.44005 8.55999 1820 ft 170 kts 161°
2026-05-05 16:56 47.42891 8.56608 2310 ft 172 kts 165°
2026-05-05 16:56 47.41766 8.57452 2514 ft 197 kts 140°
2026-05-05 16:57 47.41005 8.59221 2740 ft 218 kts 102°
2026-05-05 16:57 47.41253 8.61412 3158 ft 222 kts 56°
2026-05-05 16:57 47.42415 8.62812 3606 ft 217 kts 13°
2026-05-05 16:57 47.43866 8.63154 4121 ft 215 kts
2026-05-05 16:58 47.45312 8.63729 4585 ft 218 kts 31°
2026-05-05 16:58 47.46266 8.65409 5027 ft 217 kts 76°
2026-05-05 16:58 47.46452 8.67590 5470 ft 215 kts 92°
2026-05-05 16:58 47.46454 8.69811 5860 ft 221 kts 92°
2026-05-05 16:59 47.46462 8.72155 6098 ft 236 kts 91°
2026-05-05 16:59 47.46498 8.74661 6357 ft 251 kts 91°
2026-05-05 16:59 47.46558 8.77321 6629 ft 267 kts 90°
2026-05-05 16:59 47.46647 8.80104 6889 ft 283 kts 89°
2026-05-05 17:00 47.46590 8.83073 7242 ft 292 kts 101°
2026-05-05 17:00 47.46207 8.86035 7785 ft 295 kts 104°
2026-05-05 17:00 47.45762 8.89017 8321 ft 300 kts 105°
2026-05-05 17:00 47.45317 8.92024 8942 ft 300 kts 104°
2026-05-05 17:01 47.44879 8.95054 9540 ft 303 kts 104°
2026-05-05 17:01 47.44438 8.98121 10012 ft 308 kts 104°
2026-05-05 17:01 47.43989 9.01236 10256 ft 320 kts 104°
2026-05-05 17:01 47.43521 9.04511 10457 ft 333 kts 104°
2026-05-05 17:02 47.43027 9.07930 10658 ft 346 kts 104°
2026-05-05 17:02 47.42514 9.11461 10866 ft 358 kts 104°
2026-05-05 17:02 47.41984 9.15129 11068 ft 370 kts 104°
2026-05-05 17:02 47.41597 9.18947 11309 ft 382 kts 95°
2026-05-05 17:03 47.41696 9.22843 11743 ft 388 kts 84°
2026-05-05 17:03 47.42130 9.26792 12226 ft 392 kts 80°
2026-05-05 17:03 47.42702 9.30759 12701 ft 396 kts 78°
2026-05-05 17:03 47.43337 9.34729 13190 ft 399 kts 77°
2026-05-05 17:04 47.43990 9.38726 13708 ft 402 kts 77°
2026-05-05 17:04 47.44641 9.42760 14142 ft 405 kts 78°
2026-05-05 17:04 47.45282 9.46837 14577 ft 409 kts 78°
2026-05-05 17:04 47.45912 9.50941 15002 ft 412 kts 78°
2026-05-05 17:05 47.46532 9.55043 15440 ft 414 kts 79°
2026-05-05 17:05 47.47021 9.59239 15837 ft 416 kts 87°
2026-05-05 17:05 47.47072 9.63522 16260 ft 417 kts 94°
2026-05-05 17:05 47.46947 9.67818 16710 ft 419 kts 96°
2026-05-05 17:06 47.46731 9.72116 17146 ft 421 kts 97°